EW6167 Weather Reports


time (UTC)temp
C
wind
direction
speed
KPH
gust
KPH
rain 1hr
cm
rain 24hr
cm
rain mn
cm
humidity
%
barometer
mb
20260901054603 12 188 12.9 0.0 0.00 0.00 0.00 44 1008.9
20260901054026 12 179 11.3 0.0 0.00 0.00 0.00 45 1008.9
20260901053540 12 194 12.9 0.0 0.00 0.00 0.00 44 1009.0
20260901053112 12 161 11.3 0.0 0.00 0.00 0.00 44 1008.9
20260901052507 12 192 11.3 0.0 0.00 0.00 0.00 44 1009.0
20260901052033 12 186 11.3 0.0 0.00 0.00 0.00 44 1009.1
20260901051610 12 179 11.3 0.0 0.00 0.00 0.00 44 1009.2
20260901051016 13 190 11.3 0.0 0.00 0.00 0.00 43 1009.2
20260901050526 13 188 11.3 0.0 0.00 0.00 0.00 43 1009.1
20260901050037 12 175 9.7 0.0 0.00 0.00 0.00 44 1009.3
20260901045559 12 168 6.4 0.0 0.00 0.00 0.00 46 1009.4
20260901045000 12 138 4.8 0.0 0.00 0.00 0.00 45 1009.3
20260901044523 12 202 3.2 0.0 0.00 0.00 0.00 45 1009.2
20260901044035 12 202 3.2 0.0 0.00 0.00 0.00 43 1009.2
20260901043552 12 202 3.2 0.0 0.00 0.00 0.00 43 1009.3
20260901043107 12 202 4.8 0.0 0.00 0.00 0.00 44 1009.3
20260901042512 12 228 6.4 0.0 0.00 0.00 0.00 44 1009.3
20260901042035 13 231 8.0 0.0 0.00 0.00 0.00 45 1009.2
20260901041601 13 228 9.7 0.0 0.00 0.00 0.00 44 1009.2
20260901041103 13 243 9.7 0.0 0.00 0.00 0.00 42 1009.3
20260901040519 14 250 8.0 0.0 0.00 0.00 0.00 38 1009.4
20260901040035 15 240 8.0 0.0 0.00 0.00 0.00 37 1009.3
20260901035556 15 256 9.7 0.0 0.00 0.00 0.00 36 1009.4
20260901035006 15 260 8.0 0.0 0.00 0.00 0.00 35 1009.3
20260901034517 16 266 6.4 0.0 0.00 0.00 0.00 34 1009.2
20260901034035 16 250 4.8 0.0 0.00 0.00 0.00 31 1009.3
20260901033559 16 208 6.4 0.0 0.00 0.00 0.00 30 1009.3
20260901033008 16 237 8.0 0.0 0.00 0.00 0.00 32 1009.2
20260901032518 15 238 9.7 0.0 0.00 0.00 0.00 32 1009.2
20260901032040 15 241 8.0 0.0 0.00 0.00 0.00 32 1009.3
20260901031607 15 249 6.4 0.0 0.00 0.00 0.00 30 1009.4
20260901031010 16 196 4.8 0.0 0.00 0.00 0.00 28 1009.2
20260901030531 17 199 6.4 0.0 0.00 0.00 0.00 27 1009.2
20260901030047 17 179 8.0 0.0 0.00 0.00 0.00 26 1009.0
20260901025556 17 155 9.7 0.0 0.00 0.00 0.00 25 1009.1
20260901025005 18 161 9.7 0.0 0.00 0.00 0.00 25 1009.0
20260901024524 18 148 11.3 0.0 0.00 0.00 0.00 24 1008.9
20260901024044 18 158 12.9 0.0 0.00 0.00 0.00 24 1008.6
20260901023552 18 157 12.9 0.0 0.00 0.00 0.00 24 1008.6
20260901023010 18 138 12.9 0.0 0.00 0.00 0.00 24 1008.4
20260901022537 18 156 11.3 0.0 0.00 0.00 0.00 24 1008.4
20260901022101 18 155 9.7 0.0 0.00 0.00 0.00 25 1008.5
20260901021516 18 163 11.3 0.0 0.00 0.00 0.00 24 1008.4
20260901021038 18 138 9.7 0.0 0.00 0.00 0.00 25 1008.4
20260901020547 18 161 8.0 0.0 0.00 0.00 0.00 25 1008.5
20260901015511 18 167 9.7 0.0 0.00 0.00 0.00 25 1008.5
20260901015033 19 128 9.7 0.0 0.00 0.00 0.00 25 1008.7
20260901014547 20 153 9.7 0.0 0.00 0.00 0.00 23 1008.7
20260901014001 20 140 9.7 0.0 0.00 0.00 0.00 20 1008.6
20260901013519 21 162 9.7 0.0 0.00 0.00 0.00 19 1008.5
20260901013032 21 175 12.9 0.0 0.00 0.00 0.00 19 1008.5
20260901012550 22 175 14.5 0.0 0.00 0.00 0.00 18 1008.5
20260901012057 22 176 12.9 0.0 0.00 0.00 0.00 17 1008.5
20260901011503 22 148 12.9 0.0 0.00 0.00 0.00 17 1008.5
20260901011015 23 159 14.5 0.0 0.00 0.00 0.00 16 1008.5
20260901010539 23 167 16.1 0.0 0.00 0.00 0.00 16 1008.4
20260901010057 23 130 16.1 0.0 0.00 0.00 0.00 15 1008.2
20260901005515 24 126 14.5 0.0 0.00 0.00 0.00 14 1008.1
20260901005025 24 112 14.5 0.0 0.00 0.00 0.00 14 1008.2
20260901004535 24 133 12.9 0.0 0.00 0.00 0.00 13 1008.2
20260901004044 24 124 12.9 0.0 0.00 0.00 0.00 14 1008.2
20260901003509 24 107 16.1 0.0 0.00 0.00 0.00 14 1008.4
20260901003016 24 144 17.7 0.0 0.00 0.00 0.00 13 1008.4
20260901002532 24 150 16.1 0.0 0.00 0.00 0.00 13 1008.4
20260901002043 24 116 17.7 0.0 0.00 0.00 0.00 13 1008.3
20260901001559 24 132 17.7 0.0 0.00 0.00 0.00 13 1008.4
20260901001004 25 153 17.7 0.0 0.00 0.00 0.00 13 1008.4
20260901000513 25 175 17.7 0.0 0.00 0.00 0.00 13 1008.4
20260901000036 25 129 16.1 0.0 0.00 0.00 0.00 13 1008.3
20260831235534 25 163 16.1 0.0 0.00 0.00 0.00 13 1008.4
20260831235049 25 123 17.7 0.0 0.00 0.00 0.00 13 1008.4
20260831234612 25 145 17.7 0.0 0.00 0.00 0.00 12 1008.6
20260831234003 25 135 19.3 0.0 0.00 0.00 0.00 12 1008.8
20260831233523 25 137 19.3 0.0 0.00 0.00 0.00 12 1008.8
20260831233036 25 119 19.3 0.0 0.00 0.00 0.00 12 1008.8
20260831232548 25 171 17.7 0.0 0.00 0.00 0.00 12 1009.0
20260831232058 25 175 16.1 0.0 0.00 0.00 0.00 11 1009.0
20260831231502 25 129 14.5 0.0 0.00 0.00 0.00 12 1009.1
20260831231027 25 190 16.1 0.0 0.00 0.00 0.00 11 1009.1
20260831230539 25 126 16.1 0.0 0.00 0.00 0.00 12 1009.0
20260831230055 25 180 14.5 0.0 0.00 0.00 0.00 12 1009.1
20260831225501 25 154 17.7 0.0 0.00 0.00 0.00 11 1009.4
20260831225019 25 124 17.7 0.0 0.00 0.00 0.00 11 1009.3
20260831224541 25 182 19.3 0.0 0.00 0.00 0.00 11 1009.3
20260831224001 25 161 17.7 0.0 0.00 0.00 0.00 12 1009.3
20260831223523 25 146 17.7 0.0 0.00 0.00 0.00 12 1009.4
20260831223033 25 110 19.3 0.0 0.00 0.00 0.00 13 1009.4
20260831222548 25 182 17.7 0.0 0.00 0.00 0.00 12 1009.4
20260831222053 25 132 19.3 0.0 0.00 0.00 0.00 12 1009.6
20260831221512 25 148 20.9 0.0 0.00 0.00 0.00 13 1009.8
20260831221030 25 117 19.3 0.0 0.00 0.00 0.00 13 1009.8
20260831220552 25 132 19.3 0.0 0.00 0.00 0.00 13 1009.8
20260831220059 24 167 19.3 0.0 0.00 0.00 0.00 14 1009.8
20260831215513 25 159 20.9 0.0 0.00 0.00 0.00 14 1010.0
20260831215026 24 159 22.5 0.0 0.00 0.00 0.00 14 1009.8
20260831214535 24 171 24.1 0.0 0.00 0.00 0.00 14 1009.9
20260831214048 24 178 22.5 0.0 0.00 0.00 0.00 14 1009.9
20260831213504 24 157 22.5 0.0 0.00 0.00 0.00 14 1010.1
20260831213018 24 184 22.5 0.0 0.00 0.00 0.00 15 1010.1
20260831212540 24 140 22.5 0.0 0.00 0.00 0.00 15 1010.1
20260831212057 24 154 22.5 0.0 0.00 0.00 0.00 15 1010.2
20260831211502 24 180 22.5 0.0 0.00 0.00 0.00 16 1010.3
20260831211008 24 123 24.1 0.0 0.00 0.00 0.00 16 1010.3
20260831210532 23 198 25.7 0.0 0.00 0.00 0.00 16 1010.4
20260831210052 23 111 22.5 0.0 0.00 0.00 0.00 16 1010.4
20260831205502 23 150 24.1 0.0 0.00 0.00 0.00 17 1010.6
20260831205027 23 133 25.7 0.0 0.00 0.00 0.00 17 1010.5
20260831204543 23 135 24.1 0.0 0.00 0.00 0.00 17 1010.6
20260831204007 23 130 25.7 0.0 0.00 0.00 0.00 16 1010.6
20260831203518 23 114 25.7 0.0 0.00 0.00 0.00 17 1010.5
20260831203033 23 158 24.1 0.0 0.00 0.00 0.00 17 1010.6
20260831202537 23 184 24.1 0.0 0.00 0.00 0.00 19 1010.8
20260831202050 23 180 24.1 0.0 0.00 0.00 0.00 18 1010.9
20260831201556 23 136 22.5 0.0 0.00 0.00 0.00 18 1010.9
20260831201014 23 137 22.5 0.0 0.00 0.00 0.00 18 1010.8
20260831200535 22 107 24.1 0.0 0.00 0.00 0.00 18 1011.1
20260831200044 22 114 24.1 0.0 0.00 0.00 0.00 18 1011.1
20260831195507 22 109 25.7 0.0 0.00 0.00 0.00 19 1011.2
20260831195026 22 98 25.7 0.0 0.00 0.00 0.00 19 1011.2
20260831194537 22 136 24.1 0.0 0.00 0.00 0.00 19 1011.4
20260831194047 22 122 22.5 0.0 0.00 0.00 0.00 18 1011.3
20260831193601 22 126 22.5 0.0 0.00 0.00 0.00 19 1011.3
20260831193012 22 168 22.5 0.0 0.00 0.00 0.00 19 1011.5
20260831192519 22 142 22.5 0.0 0.00 0.00 0.00 19 1011.5
20260831192028 22 178 20.9 0.0 0.00 0.00 0.00 19 1011.7
20260831191536 22 178 19.3 0.0 0.00 0.00 0.00 20 1011.9
20260831191044 22 127 20.9 0.0 0.00 0.00 0.00 21 1011.7
20260831190552 21 122 22.5 0.0 0.00 0.00 0.00 22 1011.8
20260831190008 21 156 20.9 0.0 0.00 0.00 0.00 21 1011.8
20260831185526 21 153 20.9 0.0 0.00 0.00 0.00 21 1012.0
20260831185038 21 121 20.9 0.0 0.00 0.00 0.00 21 1011.9
20260831184552 21 150 20.9 0.0 0.00 0.00 0.00 21 1011.8
20260831184001 21 115 22.5 0.0 0.00 0.00 0.00 20 1011.9
20260831183514 21 171 22.5 0.0 0.00 0.00 0.00 21 1012.2
20260831183034 21 131 24.1 0.0 0.00 0.00 0.00 21 1012.2
20260831182540 20 150 25.7 0.0 0.00 0.00 0.00 21 1012.3
20260831182047 20 170 24.1 0.0 0.00 0.00 0.00 20 1012.3
20260831181512 20 109 20.9 0.0 0.00 0.00 0.00 21 1012.4
20260831181021 20 106 20.9 0.0 0.00 0.00 0.00 21 1012.5
20260831180535 20 127 20.9 0.0 0.00 0.00 0.00 20 1012.5
20260831180045 20 172 20.9 0.0 0.00 0.00 0.00 21 1012.7
20260831175555 20 130 22.5 0.0 0.00 0.00 0.00 20 1012.7
20260831175001 20 110 22.5 0.0 0.00 0.00 0.00 20 1012.6
20260831174515 20 138 22.5 0.0 0.00 0.00 0.00 21 1012.6
20260831174039 20 184 22.5 0.0 0.00 0.00 0.00 20 1012.9
20260831173552 19 172 22.5 0.0 0.00 0.00 0.00 21 1012.8
20260831173002 18 137 24.1 0.0 0.00 0.00 0.00 22 1012.9
20260831172508 18 165 22.5 0.0 0.00 0.00 0.00 21 1013.0
20260831172017 18 160 22.5 0.0 0.00 0.00 0.00 23 1013.2
20260831171538 18 162 24.1 0.0 0.00 0.00 0.00 25 1013.1
20260831171044 18 175 24.1 0.0 0.00 0.00 0.00 24 1013.1
20260831170550 18 161 24.1 0.0 0.00 0.00 0.00 24 1013.2
20260831165516 17 129 25.7 0.0 0.00 0.00 0.00 24 1013.2
20260831165035 17 128 24.1 0.0 0.00 0.00 0.00 24 1013.2
20260831164540 17 183 22.5 0.0 0.00 0.00 0.00 22 1013.3
20260831164049 17 168 22.5 0.0 0.00 0.00 0.00 25 1013.3
20260831163515 17 142 22.5 0.0 0.00 0.00 0.00 25 1013.3
20260831163034 17 148 22.5 0.0 0.00 0.00 0.00 25 1013.2
20260831162535 16 148 20.9 0.0 0.00 0.00 0.00 24 1013.4
20260831162046 16 159 22.5 0.0 0.00 0.00 0.00 25 1013.3
20260831161604 16 134 22.5 0.0 0.00 0.00 0.00 25 1013.5
20260831161015 16 148 22.5 0.0 0.00 0.00 0.00 25 1013.5
20260831160526 16 137 22.5 0.0 0.00 0.00 0.00 26 1013.6
20260831160053 15 168 22.5 0.0 0.00 0.00 0.00 27 1013.5
20260831155550 15 136 22.5 0.0 0.00 0.00 0.00 28 1013.6
20260831155057 15 134 22.5 0.0 0.00 0.00 0.00 30 1013.7
20260831154504 15 165 22.5 0.0 0.00 0.00 0.00 31 1013.8
20260831154020 15 129 20.9 0.0 0.00 0.00 0.00 31 1013.8
20260831153535 15 144 19.3 0.0 0.00 0.00 0.00 31 1013.9
20260831153047 14 151 19.3 0.0 0.00 0.00 0.00 31 1013.9
20260831152553 14 180 19.3 0.0 0.00 0.00 0.00 32 1014.0
20260831152105 14 123 17.7 0.0 0.00 0.00 0.00 31 1014.0
20260831151518 13 151 14.5 0.0 0.00 0.00 0.00 32 1014.0
20260831151021 13 155 14.5 0.0 0.00 0.00 0.00 33 1014.0
20260831150539 13 190 16.1 0.0 0.00 0.00 0.00 33 1013.9
20260831150058 13 186 17.7 0.0 0.00 0.00 0.00 33 1013.9
20260831145509 13 136 14.5 0.0 0.00 0.00 0.00 34 1014.1
20260831145028 12 144 14.5 0.0 0.00 0.00 0.00 35 1014.2
20260831144548 12 140 14.5 0.0 0.00 0.00 0.00 36 1014.1
20260831144003 12 149 12.9 0.0 0.00 0.00 0.00 37 1014.0
20260831143523 11 143 11.3 0.0 0.00 0.00 0.00 39 1014.0
20260831143039 10 159 9.7 0.0 0.00 0.00 0.00 41 1013.9
20260831142544 10 185 11.3 0.0 0.00 0.00 0.00 47 1013.7
20260831142049 9 203 11.3 0.0 0.00 0.00 0.00 48 1013.7
20260831141603 8 229 8.0 0.0 0.00 0.00 0.00 49 1013.6
20260831141104 8 203 8.0 0.0 0.00 0.00 0.00 51 1013.7
20260831140505 7 206 9.7 0.0 0.00 0.00 0.00 54 1013.7
20260831140015 7 202 9.7 0.0 0.00 0.00 0.00 55 1013.6
20260831135519 6 213 11.3 0.0 0.00 0.00 0.00 58 1013.4
20260831135021 6 207 12.9 0.0 0.00 0.00 0.00 59 1013.4
20260831134529 5 208 11.3 0.0 0.00 0.00 0.00 60 1013.5
20260831134040 5 212 11.3 0.0 0.00 0.00 0.00 61 1013.5
20260831133545 5 200 14.5 0.0 0.00 0.00 0.00 60 1013.3
20260831133051 5 206 16.1 0.0 0.00 0.00 0.00 60 1013.2
20260831132600 5 206 17.7 0.0 0.00 0.00 0.00 60 1013.1
20260831132002 5 215 17.7 0.0 0.00 0.00 0.00 61 1012.8
20260831131509 5 205 19.3 0.0 0.00 0.00 0.00 61 1012.9
20260831131023 5 211 19.3 0.0 0.00 0.00 0.00 62 1012.8
20260831130539 5 220 19.3 0.0 0.00 0.00 0.00 62 1012.7
20260831130052 4 215 17.7 0.0 0.00 0.00 0.00 62 1012.8
20260831125509 5 206 17.7 0.0 0.00 0.00 0.00 62 1012.7
20260831125016 5 211 16.1 0.0 0.00 0.00 0.00 62 1012.6
20260831124527 5 214 16.1 0.0 0.00 0.00 0.00 62 1012.6
20260831124029 5 217 14.5 0.0 0.00 0.00 0.00 63 1012.6
20260831123545 4 205 14.5 0.0 0.00 0.00 0.00 62 1012.5
20260831123051 5 183 14.5 0.0 0.00 0.00 0.00 62 1012.4
20260831122559 5 200 16.1 0.0 0.00 0.00 0.00 61 1012.4
20260831122020 5 209 17.7 0.0 0.00 0.00 0.00 60 1012.3
20260831121529 5 217 17.7 0.0 0.00 0.00 0.00 59 1012.4
20260831121043 5 203 19.3 0.0 0.00 0.00 0.00 59 1012.6
20260831120558 5 193 17.7 0.0 0.00 0.00 0.00 59 1012.6
20260831120105 5 167 17.7 0.0 0.00 0.00 0.00 59 1012.6
20260831115520 5 215 17.7 0.0 0.00 0.00 0.00 59 1012.6
20260831115029 5 208 17.7 0.0 0.00 0.00 0.00 59 1012.5
20260831114550 5 215 17.7 0.0 0.00 0.00 0.00 58 1012.5
20260831114055 5 197 17.7 0.0 0.00 0.00 0.00 58 1012.5
20260831113501 5 199 16.1 0.0 0.00 0.00 0.00 59 1012.5
20260831113020 5 195 14.5 0.0 0.00 0.00 0.00 60 1012.5
20260831112545 5 215 16.1 0.0 0.00 0.00 0.00 60 1012.5
20260831112054 5 213 14.5 0.0 0.00 0.00 0.00 61 1012.4
20260831111510 5 203 12.9 0.0 0.00 0.00 0.00 61 1012.3
20260831111025 5 200 11.3 0.0 0.00 0.00 0.00 60 1012.4
20260831110531 5 209 11.3 0.0 0.00 0.00 0.00 58 1012.4
20260831110056 5 211 12.9 0.0 0.00 0.00 0.00 59 1012.4
20260831105553 5 225 9.7 0.0 0.00 0.00 0.00 60 1012.2
20260831105105 5 211 9.7 0.0 0.00 0.00 0.00 60 1012.2
20260831104535 5 199 12.9 0.0 0.00 0.00 0.00 59 1012.1
20260831104042 5 194 12.9 0.0 0.00 0.00 0.00 59 1012.1
20260831103556 5 207 12.9 0.0 0.00 0.00 0.00 59 1011.9
20260831103000 6 220 11.3 0.0 0.00 0.00 0.00 56 1011.8
20260831102511 6 209 9.7 0.0 0.00 0.00 0.00 54 1012.0
20260831102033 6 205 11.3 0.0 0.00 0.00 0.00 55 1011.9
20260831101555 6 205 11.3 0.0 0.00 0.00 0.00 55 1011.9
20260831101101 6 202 11.3 0.0 0.00 0.00 0.00 55 1011.8
20260831100516 6 213 11.3 0.0 0.00 0.00 0.00 54 1011.8
20260831100025 6 196 11.3 0.0 0.00 0.00 0.00 55 1011.7
20260831095528 6 213 12.9 0.0 0.00 0.00 0.00 55 1011.8
20260831095046 6 212 11.3 0.0 0.00 0.00 0.00 54 1011.7
20260831094552 6 202 11.3 0.0 0.00 0.00 0.00 54 1011.8
20260831094106 6 196 11.3 0.0 0.00 0.00 0.00 54 1011.7
20260831093515 6 177 9.7 0.0 0.00 0.00 0.00 54 1011.6
20260831093038 6 187 6.4 0.0 0.00 0.00 0.00 54 1011.5
20260831092545 7 181 6.4 0.0 0.00 0.00 0.00 53 1011.5
20260831092059 7 162 8.0 0.0 0.00 0.00 0.00 51 1011.6
20260831091529 7 233 8.0 0.0 0.00 0.00 0.00 50 1011.6
20260831091024 7 203 9.7 0.0 0.00 0.00 0.00 51 1011.6
20260831090530 7 207 11.3 0.0 0.00 0.00 0.00 51 1011.7
20260831090042 7 200 16.1 0.0 0.00 0.00 0.00 52 1011.5
20260831085554 7 201 17.7 0.0 0.00 0.00 0.00 52 1011.5
20260831085004 7 198 17.7 0.0 0.00 0.00 0.00 52 1011.5
20260831084521 7 220 17.7 0.0 0.00 0.00 0.00 52 1011.5
20260831084038 7 187 16.1 0.0 0.00 0.00 0.00 54 1011.4
20260831083546 7 196 11.3 0.0 0.00 0.00 0.00 55 1011.3
20260831083006 7 173 6.4 0.0 0.00 0.00 0.00 53 1011.5
20260831082525 7 184 4.8 0.0 0.00 0.00 0.00 51 1011.4
20260831082040 7 185 6.4 0.0 0.00 0.00 0.00 50 1011.3
20260831081549 7 180 8.0 0.0 0.00 0.00 0.00 51 1011.3
20260831081100 7 213 8.0 0.0 0.00 0.00 0.00 55 1011.2
20260831080523 7 203 12.9 0.0 0.00 0.00 0.00 54 1011.1
20260831080031 7 196 14.5 0.0 0.00 0.00 0.00 54 1011.0
20260831075553 7 200 14.5 0.0 0.00 0.00 0.00 53 1011.0
20260831075106 8 200 14.5 0.0 0.00 0.00 0.00 50 1011.0
20260831074505 7 188 11.3 0.0 0.00 0.00 0.00 51 1011.0
20260831074016 7 195 12.9 0.0 0.00 0.00 0.00 53 1010.9
20260831073522 7 206 14.5 0.0 0.00 0.00 0.00 53 1011.0
20260831073031 7 200 14.5 0.0 0.00 0.00 0.00 54 1011.0
20260831072539 7 200 14.5 0.0 0.00 0.00 0.00 56 1010.9
20260831072053 7 215 12.9 0.0 0.00 0.00 0.00 55 1010.8
20260831071513 7 209 14.5 0.0 0.00 0.00 0.00 54 1010.7
20260831071022 7 191 16.1 0.0 0.00 0.00 0.00 53 1010.8
20260831070532 8 194 14.5 0.0 0.00 0.00 0.00 52 1010.7
20260831070044 8 179 12.9 0.0 0.00 0.00 0.00 51 1010.7
20260831065547 8 217 11.3 0.0 0.00 0.00 0.00 48 1010.8
20260831065057 7 194 11.3 0.0 0.00 0.00 0.00 54 1010.5
20260831064518 7 217 12.9 0.0 0.00 0.00 0.00 58 1010.5
20260831064038 7 218 12.9 0.0 0.00 0.00 0.00 57 1010.6
20260831063547 8 225 12.9 0.0 0.00 0.00 0.00 54 1010.5
20260831063056 8 214 12.9 0.0 0.00 0.00 0.00 52 1010.3
20260831062558 8 203 12.9 0.0 0.00 0.00 0.00 53 1010.2
20260831062009 8 199 12.9 0.0 0.00 0.00 0.00 54 1010.0
20260831061521 7 202 11.3 0.0 0.00 0.00 0.00 56 1010.1
20260831061032 7 200 11.3 0.0 0.00 0.00 0.00 56 1010.2
20260831060537 8 209 11.3 0.0 0.00 0.00 0.00 55 1010.0
20260831060046 8 192 11.3 0.0 0.00 0.00 0.00 54 1010.0
20260831055557 8 200 11.3 0.0 0.00 0.00 0.00 52 1010.0
20260831055009 8 201 9.7 0.0 0.00 0.00 0.00 52 1010.0